GLOBALSTAR M040 [-]

Last updated on July 6, 2021, 3:36 p.m. UTC

1 25622U 99004B   21186.88050316 -.00000105  00000-0 -74213-5 0  9998
2 25622  51.9911 126.8368 0000861  51.9575  47.3324 12.61907494 33200
UTC
Height (km)
Latitude
Longitude
Inclination
Orbital Period
UTC large
Height (km)
Speed (km/s)
/
Latitude / Longitude
Inclination (degrees)
Orbital Period (minutes)
Azimuth
Elevation
Range (km)
Doppler Factor
iOS Compass Heading
iOS Angle